• en France
  • Liste des pays
  • À 7 jours
  • Température de l'eau
  • Carte satellitaire
  • Carte météo
  • Widgets météo
  • user-avatar
    Se connecter

    Météo par heure à Leticia

    Ce jour, 20 Février, Mardi

    Heure Température Précipitation Vent Pression Humidité
    00:00 +23°C° 0 mm 0 m/s 750 mmHg 96%
    01:00 +23°C° 0 mm 0 m/s 750 mmHg 96%
    02:00 +22°C° 0 mm 0 m/s 750 mmHg 96%
    03:00 +22°C° 0 mm 0 m/s 750 mmHg 96%
    04:00 +22°C° 0 mm 0 m/s 750 mmHg 96%
    05:00 +23°C° 0 mm 0 m/s 750 mmHg 95%
    06:00 +23°C° 0 mm 0 m/s 751 mmHg 93%
    07:00 +24°C° 0 mm 0 m/s 751 mmHg 92%
    08:00 +26°C° 0 mm 0 m/s 751 mmHg 79%
    09:00 +31°C° 0 mm 1 m/s 751 mmHg 66%
    10:00 +34°C° 0 mm 1 m/s 752 mmHg 53%
    11:00 +35°C° 0 mm 1 m/s 751 mmHg 51%
    12:00 +35°C° 0 mm 1 m/s 750 mmHg 48%
    13:00 +36°C° 0 mm 1 m/s 749 mmHg 46%
    14:00 +34°C° 0,6 mm 1 m/s 749 mmHg 58%
    15:00 +32°C° 0,6 mm 1 m/s 748 mmHg 70%
    16:00 +30°C° 0,6 mm 2 m/s 748 mmHg 82%
    17:00 +29°C° 0,1 mm 1 m/s 749 mmHg 86%
    18:00 +27°C° 0,1 mm 1 m/s 749 mmHg 89%
    19:00 +26°C° 0,1 mm 1 m/s 749 mmHg 93%
    20:00 +26°C° 0,6 mm 1 m/s 750 mmHg 94%
    21:00 +26°C° 0,6 mm 1 m/s 750 mmHg 95%
    22:00 +25°C° 0,6 mm 1 m/s 751 mmHg 97%
    23:00 +23°C° 0,5 mm 0 m/s 751 mmHg 97%

    Demain, 21 Février, Mercredi

    Heure Température Précipitation Vent Pression Humidité
    00:00 +23°C° 0,5 mm 0 m/s 750 mmHg 97%
    01:00 +23°C° 0,5 mm 0 m/s 750 mmHg 96%
    02:00 +23°C° 0 mm 0 m/s 750 mmHg 96%
    03:00 +22°C° 0 mm 0 m/s 750 mmHg 96%
    04:00 +22°C° 0 mm 0 m/s 750 mmHg 96%
    05:00 +23°C° 0 mm 0 m/s 750 mmHg 95%
    06:00 +23°C° 0 mm 0 m/s 751 mmHg 94%
    07:00 +24°C° 0 mm 0 m/s 751 mmHg 93%
    08:00 +26°C° 0,5 mm 0 m/s 751 mmHg 85%
    09:00 +28°C° 0,5 mm 0 m/s 752 mmHg 77%
    10:00 +32°C° 0,5 mm 1 m/s 752 mmHg 70%
    11:00 +33°C° 0,6 mm 1 m/s 751 mmHg 65%
    12:00 +34°C° 0,6 mm 1 m/s 750 mmHg 61%
    13:00 +34°C° 0,6 mm 1 m/s 750 mmHg 56%
    14:00 +33°C° 0,8 mm 1 m/s 749 mmHg 66%
    15:00 +31°C° 0,8 mm 1 m/s 749 mmHg 76%
    16:00 +30°C° 0,8 mm 1 m/s 749 mmHg 86%
    17:00 +29°C° 0,5 mm 1 m/s 749 mmHg 89%
    18:00 +26°C° 0,5 mm 0 m/s 749 mmHg 92%
    19:00 +24°C° 0,5 mm 0 m/s 750 mmHg 95%
    20:00 +24°C° 0 mm 0 m/s 750 mmHg 95%
    21:00 +24°C° 0 mm 0 m/s 751 mmHg 95%
    22:00 +24°C° 0 mm 0 m/s 751 mmHg 94%
    23:00 +23°C° 0 mm 0 m/s 751 mmHg 94%

    Après-demain, 22 Février, Jeudi

    Heure Température Précipitation Vent Pression Humidité
    00:00 +23°C° 0 mm 0 m/s 751 mmHg 94%
    01:00 +23°C° 0 mm 0 m/s 750 mmHg 94%
    02:00 +23°C° 0 mm 0 m/s 750 mmHg 95%
    03:00 +23°C° 0 mm 0 m/s 750 mmHg 96%
    04:00 +23°C° 0 mm 0 m/s 749 mmHg 96%
    05:00 +23°C° 0 mm 0 m/s 750 mmHg 95%
    06:00 +23°C° 0 mm 0 m/s 750 mmHg 94%
    07:00 +24°C° 0 mm 0 m/s 751 mmHg 93%
    08:00 +28°C° 0 mm 1 m/s 751 mmHg 81%
    09:00 +31°C° 0 mm 1 m/s 752 mmHg 69%
    10:00 +34°C° 0 mm 1 m/s 752 mmHg 57%
    11:00 +34°C° 0,6 mm 1 m/s 751 mmHg 58%
    12:00 +34°C° 0,6 mm 1 m/s 750 mmHg 59%
    13:00 +34°C° 0,6 mm 1 m/s 749 mmHg 60%
    14:00 +33°C° 1 mm 1 m/s 749 mmHg 65%
    15:00 +32°C° 1 mm 1 m/s 748 mmHg 69%
    16:00 +31°C° 1 mm 1 m/s 748 mmHg 74%
    17:00 +30°C° 0,2 mm 1 m/s 748 mmHg 81%
    18:00 +28°C° 0,2 mm 1 m/s 749 mmHg 87%
    19:00 +27°C° 0,2 mm 1 m/s 749 mmHg 93%
    20:00 +26°C° 0,3 mm 1 m/s 750 mmHg 94%
    21:00 +26°C° 0,3 mm 1 m/s 751 mmHg 95%
    22:00 +26°C° 0,3 mm 1 m/s 751 mmHg 96%
    23:00 +25°C° 0,3 mm 1 m/s 751 mmHg 96%

    23 Février, Vendredi

    Heure Température Précipitation Vent Pression Humidité
    00:00 +25°C° 0,3 mm 1 m/s 750 mmHg 97%
    01:00 +25°C° 0,3 mm 1 m/s 750 mmHg 97%
    02:00 +25°C° 0,2 mm 1 m/s 750 mmHg 97%
    03:00 +25°C° 0,2 mm 1 m/s 749 mmHg 98%
    04:00 +24°C° 0,2 mm 1 m/s 749 mmHg 99%
    05:00 +25°C° 0 mm 1 m/s 750 mmHg 97%
    06:00 +25°C° 0 mm 1 m/s 751 mmHg 96%
    07:00 +25°C° 0 mm 1 m/s 751 mmHg 95%
    08:00 +28°C° 0 mm 1 m/s 751 mmHg 83%
    09:00 +31°C° 0 mm 1 m/s 752 mmHg 70%
    10:00 +33°C° 0 mm 1 m/s 752 mmHg 58%
    11:00 +35°C° 0 mm 1 m/s 751 mmHg 52%
    12:00 +36°C° 0 mm 1 m/s 750 mmHg 45%
    13:00 +37°C° 0 mm 1 m/s 748 mmHg 39%
    14:00 +36°C° 0 mm 1 m/s 748 mmHg 43%
    15:00 +35°C° 0 mm 1 m/s 748 mmHg 48%
    16:00 +32°C° 0 mm 0 m/s 747 mmHg 52%
    17:00 +30°C° 0 mm 0 m/s 748 mmHg 59%
    18:00 +29°C° 0 mm 0 m/s 748 mmHg 66%
    19:00 +29°C° 0 mm 1 m/s 749 mmHg 72%
    20:00 +28°C° 0,8 mm 1 m/s 749 mmHg 79%
    21:00 +27°C° 0,8 mm 1 m/s 750 mmHg 86%
    22:00 +26°C° 0,8 mm 1 m/s 750 mmHg 93%
    23:00 +25°C° 0,1 mm 1 m/s 750 mmHg 94%

    24 Février, Samedi

    Heure Température Précipitation Vent Pression Humidité
    00:00 +25°C° 0,1 mm 1 m/s 750 mmHg 95%
    01:00 +25°C° 0,1 mm 1 m/s 749 mmHg 96%
    02:00 +25°C° 0 mm 1 m/s 749 mmHg 97%
    03:00 +25°C° 0 mm 1 m/s 749 mmHg 97%
    04:00 +24°C° 0 mm 1 m/s 749 mmHg 98%
    05:00 +25°C° 0,1 mm 1 m/s 749 mmHg 97%
    06:00 +25°C° 0,1 mm 1 m/s 750 mmHg 95%
    07:00 +25°C° 0,1 mm 1 m/s 751 mmHg 94%
    08:00 +28°C° 0 mm 1 m/s 751 mmHg 82%
    09:00 +30°C° 0 mm 1 m/s 751 mmHg 71%
    10:00 +33°C° 0 mm 1 m/s 751 mmHg 59%
    11:00 +33°C° 0,3 mm 1 m/s 750 mmHg 58%
    12:00 +34°C° 0,3 mm 1 m/s 749 mmHg 57%
    13:00 +35°C° 0,3 mm 1 m/s 748 mmHg 56%
    14:00 +34°C° 0,8 mm 1 m/s 748 mmHg 60%
    15:00 +33°C° 0,8 mm 1 m/s 748 mmHg 64%
    16:00 +32°C° 0,8 mm 1 m/s 747 mmHg 69%
    17:00 +30°C° 0,8 mm 1 m/s 748 mmHg 77%
    18:00 +28°C° 0,8 mm 1 m/s 748 mmHg 85%
    19:00 +24°C° 0,8 mm 0 m/s 749 mmHg 93%
    20:00 +24°C° 0,8 mm 0 m/s 750 mmHg 94%
    21:00 +24°C° 0,8 mm 0 m/s 750 mmHg 94%
    22:00 +25°C° 0,8 mm 1 m/s 751 mmHg 95%
    23:00 +25°C° 0,2 mm 1 m/s 750 mmHg 96%

    25 Février, Dimanche

    Heure Température Précipitation Vent Pression Humidité
    00:00 +25°C° 0,2 mm 1 m/s 750 mmHg 97%
    01:00 +25°C° 0,2 mm 1 m/s 750 mmHg 97%
    02:00 +25°C° 0 mm 1 m/s 749 mmHg 98%
    03:00 +25°C° 0 mm 1 m/s 749 mmHg 98%
    04:00 +25°C° 0 mm 1 m/s 749 mmHg 98%
    05:00 +25°C° 0 mm 1 m/s 750 mmHg 98%
    06:00 +25°C° 0 mm 1 m/s 750 mmHg 97%
    07:00 +26°C° 0 mm 1 m/s 751 mmHg 96%
    08:00 +28°C° 0 mm 1 m/s 751 mmHg 85%
    09:00 +30°C° 0 mm 1 m/s 751 mmHg 74%
    10:00 +32°C° 0 mm 1 m/s 752 mmHg 62%
    11:00 +33°C° 0,9 mm 1 m/s 751 mmHg 60%
    12:00 +34°C° 0,9 mm 1 m/s 750 mmHg 58%
    13:00 +35°C° 0,9 mm 1 m/s 749 mmHg 56%
    14:00 +34°C° 0,7 mm 1 m/s 748 mmHg 61%
    15:00 +33°C° 0,7 mm 1 m/s 748 mmHg 65%
    16:00 +32°C° 0,7 mm 1 m/s 748 mmHg 70%
    17:00 +30°C° 0,9 mm 1 m/s 748 mmHg 78%
    18:00 +28°C° 0,9 mm 1 m/s 749 mmHg 85%
    19:00 +26°C° 0,9 mm 2 m/s 750 mmHg 93%
    20:00 +26°C° 0,5 mm 1 m/s 750 mmHg 95%
    21:00 +25°C° 0,5 mm 1 m/s 751 mmHg 96%
    22:00 +25°C° 0,5 mm 1 m/s 751 mmHg 98%
    23:00 +25°C° 0,3 mm 1 m/s 751 mmHg 98%
    Voir plus